Location: Fours
(44.3167°N, 6.7000°E)
Time: 09:45:17
(UTC+00:00)

PSLV DEB - Visible Passes

Search period start: 17 August 2022 00:00
Search period end: 27 August 2022 00:00
Orbit: 503 x 562 km, 97.8° (Epoch: 16 August)

Date Brightness Start Highest point End Pass type
(mag) Time Alt. Az. Time Alt. Az. Time Alt. Az.
24 Aug ? 19:19:02 10° WSW 19:20:14 11° W 19:21:27 10° WNW visible
25 Aug ? 19:08:15 10° SW 19:10:28 14° W 19:12:42 10° WNW visible
26 Aug ? 18:57:55 10° SW 19:00:43 18° W 19:03:33 10° NW visible
